Location: Acequia del Cap
(41.7000°N, 0.6167°E)
Time: 01:20:03
(UTC+00:00)

Cosmos 158 Rocket - Pass Details

Date: 07 August 2020
Orbit: 698 x 794 km, 74.0° (Epoch: 22 September)

Event Time Altitude Azimuth Distance (km) Brightness Sun altitude
Rises 02:49:30 0° 337° (NNW) 3,278 7.6 -20.5°
Reaches altitude 10° 02:51:54 10° 334° (NNW) 2,354 6.8 -20.2°
Maximum altitude 02:57:12 64° 254° (WSW) 877 4.0 -19.5°
Enters shadow 03:00:28 24° 180° (S) 1,608 5.3 -19.0°
